OH2FDL-2 Weather Reports


Display with metric or nautical units.
time (UTC)temp
F
wind
direction
speed
MPH
gust
MPH
rain 1hr
in
rain 24hr
in
rain mn
in
humidity
%
barometer
mb
20260503040018 43 0.0 0.0 0.00 0.00 0.00 10 1001.3
20260503034517 41 0.0 0.0 0.00 0.00 0.00 10 1001.2
20260503033018 39 0.0 0.0 0.00 0.00 0.00 10 1001.0
20260503031518 39 0.0 0.0 0.00 0.00 0.00 10 1001.2
20260503030018 38 0.0 0.0 0.00 0.00 0.00 10 1001.2
20260503024517 38 0.0 0.0 0.00 0.00 0.00 10 1001.3
20260503023023 38 0.0 0.0 0.00 0.00 0.00 10 1001.0
20260503021517 38 0.0 0.0 0.00 0.00 0.00 10 1001.4
20260503020017 38 0.0 0.0 0.00 0.00 0.00 10 1001.1
20260503014517 39 0.0 0.0 0.00 0.00 0.00 10 1001.1
20260503013019 39 0.0 0.0 0.00 0.00 0.00 10 1001.1
20260503011518 39 0.0 0.0 0.00 0.00 0.00 10 1001.3
20260503010017 40 0.0 0.0 0.00 0.00 0.00 10 1001.1
20260503004517 40 0.0 0.0 0.00 0.00 0.00 10 1001.1
20260503003018 40 0.0 0.0 0.00 0.00 0.00 10 1001.3
20260503001517 41 0.0 0.0 0.00 0.00 0.00 10 1001.6
20260502234518 42 0.0 0.0 0.00 0.00 0.00 10 1001.9
20260502231518 43 0.0 0.0 0.00 0.00 0.00 10 1002.2
20260502230018 43 0.0 0.0 0.00 0.00 0.00 10 1002.3
20260502223017 43 0.0 0.0 0.00 0.00 0.00 10 1002.4
20260502221518 43 0.0 0.0 0.00 0.00 0.00 10 1002.6
20260502213018 44 0.0 0.0 0.00 0.00 0.00 93 1003.0
20260502211518 45 0.0 0.0 0.00 0.00 0.00 90 1003.2
20260502210017 46 0.0 0.0 0.00 0.00 0.00 88 1003.4
20260502204518 47 0.0 0.0 0.00 0.00 0.00 85 1003.6
20260502203027 48 0.0 0.0 0.00 0.00 0.00 83 1003.6
20260502201518 49 0.0 0.0 0.00 0.00 0.00 80 1003.8
20260502200023 50 0.0 0.0 0.00 0.00 0.00 77 1003.9
20260502194518 51 0.0 0.0 0.00 0.00 0.00 73 1003.9
20260502193018 52 0.0 0.0 0.00 0.00 0.00 71 1003.9
20260502190017 55 0.0 0.0 0.00 0.00 0.00 65 1004.1
20260502184518 56 0.0 0.0 0.00 0.00 0.00 62 1004.1
20260502183018 57 0.0 0.0 0.00 0.00 0.00 59 1004.1
20260502181518 58 0.0 0.0 0.00 0.00 0.00 55 1004.1
20260502163017 65 0.0 0.0 0.00 0.00 0.00 40 1003.8
20260502161523 66 0.0 0.0 0.00 0.00 0.00 39 1003.9
20260502123018 73 0.0 0.0 0.00 0.00 0.00 49 1004.5
20260502114518 69 0.0 0.0 0.00 0.00 0.00 53 1004.9
20260502113027 69 0.0 0.0 0.00 0.00 0.00 53 1005.0
20260502110024 70 0.0 0.0 0.00 0.00 0.00 52 1005.1
20260502104518 71 0.0 0.0 0.00 0.00 0.00 53 1005.2
20260502103018 71 0.0 0.0 0.00 0.00 0.00 53 1005.2
20260502101517 71 0.0 0.0 0.00 0.00 0.00 52 1005.3
20260502071518 57 0.0 0.0 0.00 0.00 0.00 10 1006.7
20260502070018 55 0.0 0.0 0.00 0.00 0.00 10 1006.7
20260502064517 54 0.0 0.0 0.00 0.00 0.00 10 1006.8
20260502063018 52 0.0 0.0 0.00 0.00 0.00 10 1006.8
20260502061521 50 0.0 0.0 0.00 0.00 0.00 10 1007.0
20260502060018 49 0.0 0.0 0.00 0.00 0.00 10 1007.1
20260502054517 46 0.0 0.0 0.00 0.00 0.00 10 1007.1
20260502053017 45 0.0 0.0 0.00 0.00 0.00 10 1007.1
20260502051517 43 0.0 0.0 0.00 0.00 0.00 10 1007.3
20260502044517 40 0.0 0.0 0.00 0.00 0.00 10 1007.4
20260502043018 40 0.0 0.0 0.00 0.00 0.00 10 1007.5